�������C�����ː����j�^�v���󋵏��
Date,Time,Cs137(Bq/L),Cs134(Bq/L),�S��(Bq/L)
2016/10/07,00:00,1.3,0.13,ND
2016/10/07,00:10,1.2,0.12,ND
2016/10/07,00:20,1.2,0.11,ND
2016/10/07,00:30,1.2,0.10,ND
2016/10/07,00:40,1.2,0.12,ND
2016/10/07,00:50,1.2,0.12,ND
2016/10/07,01:00,1.2,0.12,ND
2016/10/07,01:10,1.1,0.14,ND
2016/10/07,01:20,1.2,0.11,ND
2016/10/07,01:30,1.2,0.10,ND
2016/10/07,01:40,1.2,0.090,ND
2016/10/07,01:50,1.2,0.11,ND
2016/10/07,02:00,1.2,0.095,ND
2016/10/07,02:10,1.2,0.10,ND
2016/10/07,02:20,1.2,0.11,ND
2016/10/07,02:30,1.2,0.11,ND
2016/10/07,02:40,1.2,0.12,ND
2016/10/07,02:50,1.3,0.12,ND
2016/10/07,03:00,1.3,0.12,ND
2016/10/07,03:10,1.3,0.13,ND
2016/10/07,03:20,1.3,0.13,ND
2016/10/07,03:30,1.3,0.13,ND
2016/10/07,03:40,1.3,0.12,ND
2016/10/07,03:50,1.3,0.13,ND
2016/10/07,04:00,1.3,0.14,ND
2016/10/07,04:10,1.3,0.18,ND
2016/10/07,04:20,1.3,0.15,ND
2016/10/07,04:30,1.3,0.14,ND
2016/10/07,04:40,1.3,0.15,ND
2016/10/07,04:50,1.3,0.14,ND
2016/10/07,05:00,1.3,0.13,ND
2016/10/07,05:10,1.4,0.12,ND
2016/10/07,05:20,1.4,0.13,ND
2016/10/07,05:30,1.4,0.14,ND
2016/10/07,05:40,1.4,0.13,ND
2016/10/07,05:50,1.4,0.13,ND
2016/10/07,06:00,1.3,0.15,ND
2016/10/07,06:10,1.3,0.13,ND
2016/10/07,06:20,1.3,0.12,ND
2016/10/07,06:30,1.3,0.12,ND
2016/10/07,06:40,1.3,0.12,ND
2016/10/07,06:50,1.3,0.12,ND
2016/10/07,07:00,1.3,0.11,ND
2016/10/07,07:10,1.2,0.12,ND
2016/10/07,07:20,1.3,0.11,ND
2016/10/07,07:30,1.3,0.11,ND
2016/10/07,07:40,1.3,0.11,ND
2016/10/07,07:50,1.3,0.11,ND
2016/10/07,08:00,1.3,0.11,ND
2016/10/07,08:10,1.3,0.11,ND
2016/10/07,08:20,1.3,0.12,ND
2016/10/07,08:30,1.3,0.13,ND
2016/10/07,08:40,1.3,0.12,ND
2016/10/07,08:50,1.3,0.13,ND
2016/10/07,09:00,1.3,0.13,ND
2016/10/07,09:10,1.3,0.13,ND
2016/10/07,09:20,1.3,0.13,ND
2016/10/07,09:30,1.3,0.13,ND
2016/10/07,09:40,1.2,0.15,ND
2016/10/07,09:50,1.2,0.15,ND
2016/10/07,10:00,1.2,0.13,ND
2016/10/07,10:10,1.2,0.16,ND
2016/10/07,10:20,1.2,0.16,ND
2016/10/07,10:30,1.3,0.12,ND
2016/10/07,10:40,1.3,0.11,ND
2016/10/07,10:50,1.3,0.12,ND
2016/10/07,11:00,1.3,0.12,ND
2016/10/07,11:10,1.3,0.12,ND
2016/10/07,11:20,1.3,0.13,ND
2016/10/07,11:30,1.3,0.13,ND
2016/10/07,11:40,1.2,0.13,ND
2016/10/07,11:50,1.2,0.12,ND
2016/10/07,12:00,1.2,0.12,ND
2016/10/07,12:10,1.2,0.12,ND
2016/10/07,12:20,1.2,0.11,ND
2016/10/07,12:30,1.2,0.096,ND
2016/10/07,12:40,1.2,0.086,ND
2016/10/07,12:50,1.2,0.083,ND
2016/10/07,13:00,1.2,0.081,ND
2016/10/07,13:10,1.2,0.12,ND
2016/10/07,13:20,1.2,0.12,ND
2016/10/07,13:30,1.2,0.13,ND
2016/10/07,13:40,1.2,0.13,ND
2016/10/07,13:50,1.2,0.14,ND
2016/10/07,14:00,1.2,0.14,ND
2016/10/07,14:10,1.2,0.10,ND
2016/10/07,14:20,1.2,0.10,ND
2016/10/07,14:30,1.2,0.11,ND
2016/10/07,14:40,1.2,0.11,ND
2016/10/07,14:50,1.1,0.11,ND
2016/10/07,15:00,1.1,0.11,ND
2016/10/07,15:10,1.1,0.11,ND
2016/10/07,15:20,1.1,0.11,ND
2016/10/07,15:30,1.1,0.11,ND
2016/10/07,15:40,1.1,0.087,ND
2016/10/07,15:50,1.1,0.077,ND
2016/10/07,16:00,1.1,0.078,ND
2016/10/07,16:10,1.2,0.079,ND
2016/10/07,16:20,1.2,0.077,ND
2016/10/07,16:30,1.2,0.081,ND
2016/10/07,16:40,1.2,0.084,ND
2016/10/07,16:50,1.2,0.089,ND
2016/10/07,17:00,1.2,0.097,ND
2016/10/07,17:10,1.2,0.10,ND
2016/10/07,17:20,1.2,0.10,ND
2016/10/07,17:30,1.2,0.11,ND
2016/10/07,17:40,1.1,0.14,ND
2016/10/07,17:50,1.1,0.14,ND
2016/10/07,18:00,1.2,0.11,ND
2016/10/07,18:10,1.2,0.12,ND
2016/10/07,18:20,1.2,0.11,ND
2016/10/07,18:30,1.2,0.12,ND
2016/10/07,18:40,1.2,0.12,ND
2016/10/07,18:50,1.2,0.12,ND
2016/10/07,19:00,1.2,0.12,ND
2016/10/07,19:10,1.2,0.12,ND
2016/10/07,19:20,1.2,0.12,ND
2016/10/07,19:30,1.2,0.10,ND
2016/10/07,19:40,1.1,0.10,ND
2016/10/07,19:50,1.1,0.10,ND
2016/10/07,20:00,1.1,0.10,ND
2016/10/07,20:10,1.1,0.096,ND
2016/10/07,20:20,1.1,0.090,ND
2016/10/07,20:30,1.1,0.096,ND
2016/10/07,20:40,1.1,0.099,ND
2016/10/07,20:50,1.1,0.12,ND
2016/10/07,21:00,1.2,0.11,ND
2016/10/07,21:10,1.2,0.12,ND
2016/10/07,21:20,1.2,0.12,ND
2016/10/07,21:30,1.3,0.12,ND
2016/10/07,21:40,1.3,0.13,ND
2016/10/07,21:50,1.4,0.13,ND
2016/10/07,22:00,1.4,0.13,ND
2016/10/07,22:10,1.4,0.13,ND
2016/10/07,22:20,1.4,0.13,ND
2016/10/07,22:30,1.4,0.14,ND
2016/10/07,22:40,1.4,0.13,ND
2016/10/07,22:50,1.4,0.13,ND
2016/10/07,23:00,1.4,0.13,ND
2016/10/07,23:10,1.4,0.14,ND
2016/10/07,23:20,1.4,0.13,ND
2016/10/07,23:30,1.4,0.12,ND
2016/10/07,23:40,1.4,0.12,ND
2016/10/07,23:50,1.4,0.13,ND
